| time (UTC) | temp F | wind direction | speed MPH | gust MPH | rain 1hr in | rain 24hr in | rain mn in | humidity % | barometer mb |
| 20260505005436 | 61 | 245 | 0.0 | 0.0 | 0.00 | 0.00 | 0.00 | 50 | 1003.0 |
| 20260505004934 | 62 | 245 | 0.0 | 0.0 | 0.00 | 0.00 | 0.00 | 52 | 1003.0 |
| 20260505004431 | 62 | 245 | 0.0 | 0.0 | 0.00 | 0.00 | 0.00 | 49 | 1003.3 |
| 20260505003928 | 62 | 245 | 0.0 | 0.0 | 0.00 | 0.00 | 0.00 | 47 | 1003.1 |
| 20260505003425 | 63 | 245 | 0.0 | 1.0 | 0.00 | 0.00 | 0.00 | 48 | 1003.1 |
| 20260505002921 | 64 | 245 | 0.0 | 0.0 | 0.00 | 0.00 | 0.00 | 47 | 1003.0 |
| 20260505002417 | 64 | 245 | 0.0 | 0.0 | 0.00 | 0.00 | 0.00 | 45 | 1003.1 |
| 20260505001916 | 65 | 245 | 1.0 | 1.0 | 0.00 | 0.00 | 0.00 | 42 | 1003.0 |
| 20260505001413 | 66 | 245 | 0.0 | 0.0 | 0.00 | 0.00 | 0.00 | 42 | 1003.1 |
| 20260505000910 | 67 | 245 | 1.0 | 2.0 | 0.00 | 0.00 | 0.00 | 42 | 1003.2 |
| 20260505000408 | 67 | 245 | 0.0 | 0.0 | 0.00 | 0.00 | 0.00 | 40 | 1003.1 |
| 20260504235904 | 68 | 245 | 1.0 | 1.0 | 0.00 | 0.00 | 0.00 | 40 | 1003.1 |
| 20260504235402 | 69 | 246 | 0.0 | 0.0 | 0.00 | 0.00 | 0.00 | 38 | 1003.1 |
| 20260504234857 | 69 | 246 | 1.0 | 2.0 | 0.00 | 0.00 | 0.00 | 35 | 1003.2 |
| 20260504234355 | 69 | 247 | 1.0 | 1.0 | 0.00 | 0.00 | 0.00 | 37 | 1003.2 |
| 20260504233852 | 70 | 247 | 1.0 | 1.0 | 0.00 | 0.00 | 0.00 | 37 | 1003.2 |
| 20260504233348 | 70 | 247 | 1.0 | 1.0 | 0.00 | 0.00 | 0.00 | 34 | 1003.2 |
| 20260504232844 | 71 | 247 | 1.0 | 2.0 | 0.00 | 0.00 | 0.00 | 35 | 1003.2 |
| 20260504232342 | 70 | 242 | 2.0 | 2.0 | 0.00 | 0.00 | 0.00 | 33 | 1003.2 |
| 20260504231838 | 71 | 241 | 0.0 | 1.0 | 0.00 | 0.00 | 0.00 | 34 | 1003.2 |
| 20260504231335 | 71 | 241 | 1.0 | 3.0 | 0.00 | 0.00 | 0.00 | 33 | 1003.4 |
| 20260504230831 | 71 | 250 | 1.0 | 2.0 | 0.00 | 0.00 | 0.00 | 33 | 1003.3 |
| 20260504230329 | 71 | 249 | 1.0 | 1.0 | 0.00 | 0.00 | 0.00 | 32 | 1003.0 |
| 20260504225828 | 71 | 255 | 0.0 | 2.0 | 0.00 | 0.00 | 0.00 | 32 | 1003.2 |
| 20260504225323 | 72 | 255 | 2.0 | 6.0 | 0.00 | 0.00 | 0.00 | 31 | 1003.2 |
| 20260504224821 | 72 | 266 | 2.0 | 4.0 | 0.00 | 0.00 | 0.00 | 31 | 1003.2 |
| 20260504224318 | 72 | 254 | 1.0 | 2.0 | 0.00 | 0.00 | 0.00 | 32 | 1003.3 |
| 20260504223815 | 72 | 257 | 4.0 | 6.0 | 0.00 | 0.00 | 0.00 | 31 | 1003.0 |
| 20260504223310 | 72 | 263 | 4.0 | 7.0 | 0.00 | 0.00 | 0.00 | 30 | 1002.9 |
| 20260504222807 | 72 | 271 | 3.0 | 7.0 | 0.00 | 0.00 | 0.00 | 30 | 1003.1 |
| 20260504222305 | 72 | 253 | 3.0 | 9.0 | 0.00 | 0.00 | 0.00 | 30 | 1002.8 |
| 20260504221802 | 73 | 247 | 2.0 | 2.0 | 0.00 | 0.00 | 0.00 | 31 | 1003.1 |
| 20260504221258 | 73 | 228 | 4.0 | 8.0 | 0.00 | 0.00 | 0.00 | 29 | 1003.2 |
| 20260504220755 | 73 | 283 | 3.0 | 4.0 | 0.00 | 0.00 | 0.00 | 30 | 1003.1 |
| 20260504220252 | 74 | 249 | 3.0 | 4.0 | 0.00 | 0.00 | 0.00 | 30 | 1003.0 |
| 20260504215749 | 73 | 287 | 5.0 | 7.0 | 0.00 | 0.00 | 0.00 | 29 | 1002.9 |
| 20260504215246 | 74 | 245 | 2.0 | 7.0 | 0.00 | 0.00 | 0.00 | 31 | 1003.0 |
| 20260504214742 | 74 | 293 | 4.0 | 8.0 | 0.00 | 0.00 | 0.00 | 29 | 1003.0 |
| 20260504214238 | 74 | 237 | 6.0 | 10.0 | 0.00 | 0.00 | 0.00 | 29 | 1003.2 |
| 20260504213735 | 73 | 243 | 6.0 | 9.0 | 0.00 | 0.00 | 0.00 | 30 | 1003.1 |
| 20260504213232 | 74 | 241 | 6.0 | 11.0 | 0.00 | 0.00 | 0.00 | 29 | 1003.2 |
| 20260504212729 | 74 | 243 | 4.0 | 4.0 | 0.00 | 0.00 | 0.00 | 30 | 1003.0 |
| 20260504212225 | 74 | 222 | 4.0 | 9.0 | 0.00 | 0.00 | 0.00 | 29 | 1003.2 |
| 20260504211723 | 74 | 255 | 4.0 | 10.0 | 0.00 | 0.00 | 0.00 | 29 | 1003.3 |
| 20260504211219 | 74 | 263 | 8.0 | 9.0 | 0.00 | 0.00 | 0.00 | 29 | 1003.3 |
| 20260504210717 | 74 | 308 | 3.0 | 8.0 | 0.00 | 0.00 | 0.00 | 30 | 1003.3 |
| 20260504210214 | 74 | 271 | 3.0 | 7.0 | 0.00 | 0.00 | 0.00 | 31 | 1003.2 |
| 20260504205711 | 74 | 271 | 6.0 | 8.0 | 0.00 | 0.00 | 0.00 | 30 | 1003.2 |
| 20260504205208 | 74 | 222 | 5.0 | 9.0 | 0.00 | 0.00 | 0.00 | 31 | 1003.1 |
| 20260504204706 | 74 | 210 | 5.0 | 9.0 | 0.00 | 0.00 | 0.00 | 31 | 1003.3 |
| 20260504204205 | 74 | 236 | 3.0 | 8.0 | 0.00 | 0.00 | 0.00 | 32 | 1003.1 |
| 20260504203703 | 74 | 234 | 6.0 | 13.0 | 0.00 | 0.00 | 0.00 | 32 | 1003.4 |
| 20260504203201 | 75 | 219 | 5.0 | 10.0 | 0.00 | 0.00 | 0.00 | 32 | 1003.2 |
| 20260504202700 | 74 | 264 | 2.0 | 3.0 | 0.00 | 0.00 | 0.00 | 34 | 1003.5 |
| 20260504202158 | 73 | 197 | 5.0 | 6.0 | 0.00 | 0.00 | 0.00 | 33 | 1003.4 |
| 20260504201654 | 73 | 261 | 6.0 | 10.0 | 0.00 | 0.00 | 0.00 | 33 | 1003.6 |
| 20260504201152 | 73 | 249 | 4.0 | 9.0 | 0.00 | 0.00 | 0.00 | 33 | 1003.5 |
| 20260504200649 | 73 | 228 | 6.0 | 11.0 | 0.00 | 0.00 | 0.00 | 32 | 1003.7 |
| 20260504200146 | 74 | 202 | 4.0 | 11.0 | 0.00 | 0.00 | 0.00 | 32 | 1003.4 |
| 20260504195642 | 74 | 232 | 3.0 | 4.0 | 0.00 | 0.00 | 0.00 | 36 | 1003.8 |
| 20260504195138 | 73 | 231 | 3.0 | 7.0 | 0.00 | 0.00 | 0.00 | 35 | 1003.9 |
| 20260504194635 | 73 | 251 | 11.0 | 13.0 | 0.00 | 0.00 | 0.00 | 34 | 1003.9 |
| 20260504194131 | 74 | 272 | 6.0 | 8.0 | 0.00 | 0.00 | 0.00 | 35 | 1004.0 |
| 20260504193627 | 74 | 241 | 3.0 | 6.0 | 0.00 | 0.00 | 0.00 | 33 | 1004.1 |
| 20260504193126 | 72 | 249 | 4.0 | 4.0 | 0.00 | 0.00 | 0.00 | 36 | 1004.1 |
| 20260504192623 | 72 | 258 | 4.0 | 7.0 | 0.00 | 0.00 | 0.00 | 36 | 1004.3 |
| 20260504192121 | 73 | 276 | 11.0 | 13.0 | 0.00 | 0.00 | 0.00 | 34 | 1004.4 |
| 20260504191620 | 72 | 247 | 7.0 | 13.0 | 0.00 | 0.00 | 0.00 | 36 | 1004.3 |
| 20260504191115 | 71 | 248 | 3.0 | 11.0 | 0.00 | 0.00 | 0.00 | 37 | 1004.5 |
| 20260504190612 | 72 | 223 | 6.0 | 11.0 | 0.00 | 0.00 | 0.00 | 35 | 1004.5 |
| 20260504190108 | 72 | 258 | 3.0 | 11.0 | 0.00 | 0.00 | 0.00 | 37 | 1004.6 |
| 20260504185605 | 73 | 251 | 6.0 | 9.0 | 0.00 | 0.00 | 0.00 | 35 | 1004.3 |
| 20260504185101 | 72 | 234 | 2.0 | 13.0 | 0.00 | 0.00 | 0.00 | 37 | 1004.6 |
| 20260504184557 | 71 | 270 | 3.0 | 8.0 | 0.00 | 0.00 | 0.00 | 40 | 1004.8 |
| 20260504184052 | 71 | 234 | 6.0 | 14.0 | 0.00 | 0.00 | 0.00 | 38 | 1004.9 |
| 20260504183549 | 71 | 262 | 4.0 | 6.0 | 0.00 | 0.00 | 0.00 | 37 | 1005.0 |
| 20260504183048 | 71 | 263 | 7.0 | 14.0 | 0.00 | 0.00 | 0.00 | 37 | 1004.8 |
| 20260504182544 | 71 | 235 | 5.0 | 10.0 | 0.00 | 0.00 | 0.00 | 41 | 1004.9 |
| 20260504182042 | 71 | 238 | 4.0 | 13.0 | 0.00 | 0.00 | 0.00 | 38 | 1004.8 |
| 20260504181539 | 71 | 241 | 4.0 | 7.0 | 0.00 | 0.00 | 0.00 | 38 | 1005.2 |
| 20260504181037 | 70 | 218 | 6.0 | 8.0 | 0.00 | 0.00 | 0.00 | 39 | 1005.0 |
| 20260504180536 | 70 | 269 | 4.0 | 9.0 | 0.00 | 0.00 | 0.00 | 39 | 1005.1 |
| 20260504180034 | 70 | 220 | 4.0 | 8.0 | 0.00 | 0.00 | 0.00 | 42 | 1005.2 |
| 20260504175531 | 70 | 287 | 5.0 | 9.0 | 0.00 | 0.00 | 0.00 | 40 | 1005.3 |
| 20260504175028 | 70 | 263 | 4.0 | 8.0 | 0.00 | 0.00 | 0.00 | 40 | 1005.4 |
| 20260504174526 | 70 | 211 | 5.0 | 9.0 | 0.00 | 0.00 | 0.00 | 41 | 1005.5 |
| 20260504174022 | 70 | 260 | 6.0 | 9.0 | 0.00 | 0.00 | 0.00 | 39 | 1005.4 |
| 20260504173519 | 69 | 225 | 3.0 | 4.0 | 0.00 | 0.00 | 0.00 | 42 | 1005.4 |
| 20260504173017 | 69 | 282 | 2.0 | 6.0 | 0.00 | 0.00 | 0.00 | 40 | 1005.3 |
| 20260504172513 | 69 | 250 | 5.0 | 8.0 | 0.00 | 0.00 | 0.00 | 39 | 1005.5 |
| 20260504172009 | 69 | 227 | 3.0 | 4.0 | 0.00 | 0.00 | 0.00 | 41 | 1005.5 |
| 20260504171506 | 69 | 224 | 4.0 | 4.0 | 0.00 | 0.00 | 0.00 | 41 | 1005.5 |
| 20260504171003 | 69 | 257 | 3.0 | 10.0 | 0.00 | 0.00 | 0.00 | 39 | 1005.5 |
| 20260504170459 | 68 | 234 | 4.0 | 6.0 | 0.00 | 0.00 | 0.00 | 44 | 1005.5 |
| 20260504160419 | 67 | 147 | 4.0 | 6.0 | 0.00 | 0.00 | 0.00 | 42 | 1005.8 |
| 20260504150843 | 65 | 228 | 9.0 | 11.0 | 0.00 | 0.00 | 0.00 | 42 | 1006.4 |
| 20260504150339 | 64 | 265 | 6.0 | 10.0 | 0.00 | 0.00 | 0.00 | 42 | 1006.5 |
| 20260504141309 | 63 | 212 | 1.0 | 9.0 | 0.00 | 0.00 | 0.00 | 45 | 1006.4 |
| 20260504140806 | 62 | 262 | 5.0 | 9.0 | 0.00 | 0.00 | 0.00 | 43 | 1006.5 |
| 20260504140302 | 63 | 255 | 3.0 | 14.0 | 0.00 | 0.00 | 0.00 | 43 | 1006.5 |
| 20260504130731 | 60 | 228 | 2.0 | 10.0 | 0.00 | 0.00 | 0.00 | 45 | 1006.8 |
| 20260504130226 | 60 | 228 | 2.0 | 3.0 | 0.00 | 0.00 | 0.00 | 46 | 1006.9 |
| 20260504120150 | 57 | 257 | 3.0 | 6.0 | 0.00 | 0.00 | 0.00 | 48 | 1007.0 |
| 20260504110618 | 55 | 238 | 4.0 | 6.0 | 0.00 | 0.00 | 0.00 | 48 | 1007.1 |
| 20260504110114 | 55 | 234 | 3.0 | 3.0 | 0.00 | 0.00 | 0.00 | 49 | 1006.9 |
| 20260504100539 | 54 | 250 | 2.0 | 3.0 | 0.00 | 0.00 | 0.00 | 49 | 1006.6 |
| 20260504081933 | 53 | 237 | 3.0 | 3.0 | 0.00 | 0.00 | 0.00 | 54 | 1007.7 |
| 20260504081430 | 53 | 237 | 3.0 | 3.0 | 0.00 | 0.00 | 0.00 | 54 | 1007.7 |
| 20260504080926 | 53 | 231 | 3.0 | 3.0 | 0.00 | 0.00 | 0.00 | 56 | 1007.6 |
| 20260504080423 | 53 | 231 | 3.0 | 3.0 | 0.00 | 0.00 | 0.00 | 56 | 1007.4 |
| 20260504070350 | 53 | 286 | 6.0 | 7.0 | 0.00 | 0.00 | 0.00 | 55 | 1008.1 |
| 20260504050738 | 55 | 262 | 3.0 | 6.0 | 0.00 | 0.00 | 0.00 | 46 | 1008.6 |
| 20260504050235 | 55 | 253 | 3.0 | 4.0 | 0.00 | 0.00 | 0.00 | 46 | 1008.8 |
| 20260504045732 | 55 | 248 | 4.0 | 4.0 | 0.00 | 0.00 | 0.00 | 45 | 1008.8 |
| 20260504045227 | 55 | 248 | 4.0 | 4.0 | 0.00 | 0.00 | 0.00 | 45 | 1009.0 |
| 20260504044725 | 56 | 254 | 3.0 | 3.0 | 0.00 | 0.00 | 0.00 | 45 | 1008.9 |
| 20260504044222 | 56 | 262 | 5.0 | 6.0 | 0.00 | 0.00 | 0.00 | 45 | 1009.0 |
| 20260504043720 | 56 | 257 | 3.0 | 3.0 | 0.00 | 0.00 | 0.00 | 45 | 1009.0 |
| 20260504043216 | 56 | 249 | 6.0 | 9.0 | 0.00 | 0.00 | 0.00 | 44 | 1008.9 |
| 20260504042714 | 56 | 266 | 4.0 | 4.0 | 0.00 | 0.00 | 0.00 | 44 | 1009.0 |
| 20260504042210 | 56 | 233 | 2.0 | 3.0 | 0.00 | 0.00 | 0.00 | 45 | 1008.9 |
| 20260504041706 | 56 | 252 | 2.0 | 2.0 | 0.00 | 0.00 | 0.00 | 45 | 1008.9 |
| 20260504041202 | 55 | 235 | 6.0 | 8.0 | 0.00 | 0.00 | 0.00 | 45 | 1009.0 |
| 20260504040659 | 56 | 255 | 3.0 | 3.0 | 0.00 | 0.00 | 0.00 | 45 | 1009.1 |
| 20260504040156 | 56 | 255 | 3.0 | 3.0 | 0.00 | 0.00 | 0.00 | 45 | 1009.0 |
| 20260504035652 | 55 | 245 | 5.0 | 7.0 | 0.00 | 0.01 | 0.01 | 45 | 1008.9 |
| 20260504035150 | 55 | 268 | 4.0 | 3.0 | 0.00 | 0.01 | 0.01 | 45 | 1009.1 |
| 20260504034647 | 55 | 259 | 6.0 | 8.0 | 0.00 | 0.01 | 0.01 | 45 | 1008.9 |
| 20260504034144 | 55 | 234 | 3.0 | 3.0 | 0.00 | 0.01 | 0.01 | 47 | 1008.9 |
| 20260504033642 | 55 | 238 | 6.0 | 8.0 | 0.00 | 0.01 | 0.01 | 46 | 1008.9 |
| 20260504033139 | 55 | 238 | 6.0 | 8.0 | 0.00 | 0.01 | 0.01 | 46 | 1008.8 |
| 20260504032635 | 55 | 260 | 3.0 | 3.0 | 0.00 | 0.01 | 0.01 | 47 | 1008.8 |
| 20260504032133 | 55 | 227 | 3.0 | 3.0 | 0.00 | 0.01 | 0.01 | 46 | 1008.8 |
| 20260504031630 | 55 | 227 | 3.0 | 3.0 | 0.00 | 0.01 | 0.01 | 46 | 1008.8 |
| 20260504031126 | 55 | 239 | 5.0 | 6.0 | 0.00 | 0.01 | 0.01 | 46 | 1008.9 |
| 20260504030623 | 55 | 204 | 4.0 | 7.0 | 0.00 | 0.01 | 0.01 | 46 | 1009.0 |
| 20260504030119 | 55 | 241 | 4.0 | 4.0 | 0.00 | 0.01 | 0.01 | 47 | 1009.0 |
| 20260504025616 | 54 | 248 | 2.0 | 2.0 | 0.00 | 0.01 | 0.01 | 48 | 1009.2 |
| 20260504025113 | 54 | 267 | 3.0 | 4.0 | 0.00 | 0.01 | 0.01 | 48 | 1009.0 |
| 20260504024611 | 54 | 246 | 2.0 | 2.0 | 0.00 | 0.01 | 0.01 | 48 | 1008.9 |
| 20260504024107 | 54 | 246 | 2.0 | 2.0 | 0.00 | 0.01 | 0.01 | 51 | 1009.2 |
| 20260504023603 | 54 | 246 | 2.0 | 2.0 | 0.00 | 0.01 | 0.01 | 51 | 1009.2 |
| 20260504023059 | 54 | 246 | 2.0 | 2.0 | 0.00 | 0.01 | 0.01 | 51 | 1009.0 |
| 20260504022556 | 53 | 225 | 3.0 | 4.0 | 0.00 | 0.01 | 0.01 | 52 | 1009.4 |
| 20260504022052 | 53 | 225 | 3.0 | 4.0 | 0.00 | 0.01 | 0.01 | 52 | 1009.3 |
| 20260504021550 | 53 | 254 | 4.0 | 4.0 | 0.00 | 0.01 | 0.01 | 54 | 1009.2 |
| 20260504021046 | 53 | 251 | 3.0 | 6.0 | 0.00 | 0.01 | 0.01 | 58 | 1009.2 |
| 20260504020543 | 50 | 241 | 2.0 | 2.0 | 0.00 | 0.01 | 0.01 | 73 | 1009.2 |
| 20260504020040 | 50 | 241 | 2.0 | 2.0 | 0.00 | 0.01 | 0.01 | 73 | 1009.4 |
| 20260504015536 | 50 | 241 | 2.0 | 2.0 | 0.00 | 0.01 | 0.01 | 73 | 1009.4 |
| 20260504015032 | 49 | 293 | 0.0 | 0.0 | 0.00 | 0.01 | 0.01 | 89 | 1009.4 |
| 20260504014528 | 49 | 293 | 0.0 | 0.0 | 0.00 | 0.01 | 0.01 | 89 | 1009.4 |
| 20260504014026 | 49 | 293 | 0.0 | 0.0 | 0.00 | 0.01 | 0.01 | 89 | 1009.4 |
| 20260504013524 | 49 | 293 | 0.0 | 0.0 | 0.00 | 0.01 | 0.01 | 89 | 1009.5 |
| 20260504013020 | 49 | 293 | 0.0 | 0.0 | 0.00 | 0.01 | 0.01 | 89 | 1009.5 |
| 20260504012518 | 49 | 293 | 0.0 | 0.0 | 0.00 | 0.01 | 0.01 | 89 | 1009.6 |
| 20260504012016 | 49 | 293 | 0.0 | 0.0 | 0.00 | 0.01 | 0.01 | 89 | 1009.8 |
| 20260504011512 | 49 | 293 | 0.0 | 0.0 | 0.00 | 0.01 | 0.01 | 89 | 1009.6 |
| 20260504011008 | 48 | 293 | 0.0 | 0.0 | 0.00 | 0.01 | 0.01 | 91 | 1009.6 |
| 20260504010504 | 48 | 293 | 0.0 | 0.0 | 0.00 | 0.01 | 0.01 | 91 | 1009.4 |
| 20260504010000 | 48 | 293 | 0.0 | 0.0 | 0.00 | 0.01 | 0.01 | 91 | 1009.3 |